Weather Roundup
Issued by NWS Springfield, MO

Home | Current Version | Previous Version | Text Only | Print | Product List | Glossary On
Versions: 1 2 3 4 5 6 7 8 9 10 11 12 13 14 15 16 17 18 19 20 21 22 23 24 25 26 27 28 29 30 31 32 33 34 35 36 37 38 39 40 41 42 43 44 45 46 47 48 49 50
000
NZUS99 KSGF 222207
HRRSGF

HOURLY WEATHER
NATIONAL WEATHER SERVICE SPRINGFIELD MO
400 PM CST MON DEC 22 2014

......SGF CWA......

CITY           SKY/WX    TMP DP  RH WIND       PRES   REMARKS
SPRINGFIELD    LGT RAIN  49  47  93 S10       29.48S FOG
JOPLIN         LGT RAIN  49  47  93 W12       29.51R FOG
WEST PLAINS    CLOUDY    49  47  93 S8        29.53S FOG
ROLLA          LGT RAIN  47  45  93 S6        29.49F FOG
OSAGE BEACH    CLOUDY    48  45  87 S7        29.48F
BRANSON        LGT RAIN  48  46  93 CALM      29.52R FOG

......SURROUNDING SGF CWA......

CITY           SKY/WX    TMP DP  RH WIND       PRES   REMARKS
CHANUTE        CLOUDY    49  44  83 W13G24    29.51R
PARSONS        PTSUNNY   51  47  86 W8        29.52R
COFFEYVILLE    CLOUDY    51  46  83 W10       29.52R
EMPORIA        CLOUDY    47  39  74 W14       29.50R
GROVE OK       CLOUDY    52  52 100 SW8       29.53R FOG
ROGERS AR      LGT RAIN  48  47  96 SW9       29.52R FOG
SILOAM SPRINGS CLOUDY    50  43  76 W10       29.53S
HARRISON AR    LGT RAIN  48  48 100 S7        29.53R
NEAR YELLVILLE CLOUDY    52  45  76 S3        29.53R

......KANSAS AND MISSOURI......

CITY           SKY/WX    TMP DP  RH WIND       PRES   REMARKS
KANSAS CTY INT LGT RAIN  46  45  96 W7        29.43S
DOWNTOWN KC    CLOUDY    48  45  89 SW3       29.44R
COLUMBIA       LGT RAIN  47  46  97 S10       29.49R FOG
SEDALIA        LGT RAIN  48  46  93 S8        29.47S FOG
ST JOSEPH      CLOUDY    46  43  89 W15G23    29.42S
ST LOUIS       LGT RAIN  50  46  87 SE8       29.56S FOG
SPIRIT OF STL  LGT RAIN  48  46  93 CALM      29.54F FOG
KIRKSVILLE     LGT RAIN  43  43 100 SE8       29.48F FOG
WICHITA        PTSUNNY   53  35  50 NW10      29.55R
TOPEKA         LGT RAIN  48  43  82 W10       29.48R
OLATHE         CLOUDY    47  45  93 W9        29.44R

......TENNESSEE......

CITY           SKY/WX    TMP DP  RH WIND       PRES   REMARKS
MEMPHIS        LGT RAIN  57  52  82 S12       29.61S
NASHVILLE      CLOUDY    52  49  89 SE13      29.76F

......ARKANSAS.......

CITY           SKY/WX    TMP DP  RH WIND       PRES   REMARKS
FAYETTEVILLE   LGT RAIN  50  48  93 SW8       29.53R
FT SMITH       CLOUDY    53  50  89 E6        29.52F
LITTLE ROCK    DRIZZLE   57  52  83 S9        29.57S

......OKLAHOMA.......

CITY           SKY/WX    TMP DP  RH WIND       PRES   REMARKS
TULSA          PTSUNNY   54  47  77 W12       29.55R
PONCA CITY     MOSUNNY   54  39  57 NW13      29.57R
MCALESTER      MOSUNNY   57  45  64 W8        29.58R
OKLAHOMA CITY  PTSUNNY   55  37  50 NW13      29.62R

......IOWA............

CITY           SKY/WX    TMP DP  RH WIND       PRES   REMARKS
DES MOINES     LGT RAIN  41  38  89 SE10      29.47S FOG
QUAD CITIES    CLOUDY    39  37  92 E7        29.57F FOG     WCI  34

......ILLINOIS........

CITY           SKY/WX    TMP DP  RH WIND       PRES   REMARKS
QUINCY         CLOUDY    44  42  93 SE10      29.52F FOG
CHICAGO        LGT RAIN  37  35  92 E10       29.69F FOG     WCI  30



USA.gov is the U.S. government's official web portal to all federal, state and local government web resources and services.